Погода в Антекере

Испания     37°01′19″N   4°33′34″W
темп.,
°C
ветер,
м/с
пор.,
м/с
влажн.,
%
обл.,
%
осадки,
мм/ч
давл.,
гПа
погр.,
м
20 сентября, пн
пн2023:00+20ююв22700 0.0 101952
02:00+18ююв22842 0.0 101833
05:00+17ююв229511 0.0 101829
08:00+16ююв229624 0.0 101925
11:00+21ю22670 0.0 1019472
14:00+26ююз43461 0.0 10181530
17:00+26ююз32430 0.0 10161577
20:00+24ююз23500 0.0 1016154
21 сентября, вт
вт2123:00+19ююв23810 0.0 101896
02:00+18ююв11880 0.0 101826
05:00+17ююв22890 0.0 101635
08:00+16юв22910 0.0 101720
11:00+21ююв346721 0.1 1017778
14:00+24ю655543 0.1 10161418
17:00+23ю76548 0.1 10151165
20:00+20ю347124 0.2 1016603
22 сентября, ср
ср2223:00+17ю359153 1.1 1018275
02:00+17ю348843 1.5 1017338
05:00+17ю229013 0.6 1015193
08:00+16ююв119378 1.4 101524
11:00+20ююв1264100 1.1 1015531
14:00+22зюз225993 6.7 1015479
17:00+20юв236771 8.6 1014351
20:00+19ю227221 10.8 1014158
23 сентября, чт
чт2323:00+18ююв12830 0.5 101652
02:00+17ююв239311 0.7 101580
05:00+16юв2295100 0.0 101579
08:00+16ююв229299 0.0 101431
11:00+20ююв347288 0.0 1015643
14:00+23ююв4554100 0.0 10141134
17:00+23ю4556100 0.0 1013938
20:00+20ю3569100 0.0 1014531
24 сентября, пт
пт2423:00+18ююв3780100 0.0 1015361
02:00+18ю3779100 0.0 1015489
05:00+17ю238977 0.0 101498
08:00+17юв229697 0.0 101455
11:00+20ююв4877100 0.9 1015860
14:00+23ююв486599 2.8 10151087
17:00+23ю686560 2.2 10141179
20:00+21ю377832 2.8 1015734